Puerto Banus, Marbella

>

This is an optional block (switch it off / on) in the settings - file ($SITE['banners'] = false;)

You can display ads, any other important text or photo’s using text / html or PHP code.

You can place one or more at the top and or bottom and it can all be different for content / size .



aviso para Tormentas more information blitzortung!


aviso para Luvia  rain snow radar


Visita nuestra red de sitios de meteo:

Documentation for the template used

MeteoibericaRed estaciones Meteorologicas

MeteoclimaticRed estaciones Meteorologicas



Lluvia Desde: 19-10-2018 23:00 Hasta: 20-10-2018 16:59 Advertencias para: Lluvia Nivel: Naranja info button
Tormentas Desde: 19-10-2018 23:00 Hasta: 20-10-2018 16:59 Advertencias para: Tormentas Nivel: Amarillo info button

Pagina Historial Weather Underground texto

Diario Resumen January 3, 2017 Unidades:  Tanto    impérial   Métrico
« Anterior Dia
Siguiente Dia »
Diario Semana Mensual Anual Personalizada
  Maxima: Minima: Media:
Temperatura: TemperatureC °F /  -17.8 °C 9.9 °F /  -12.3 °C 12.6 °F /  -10.8 °C
Punto de rocío: DewpointC °F /  -17.8 °C 7.1 °F /  -13.8 °C 9.3 °F /  -12.6 °C
Humedad: Humidity % 71 % 80 %
Velocidad del Viento: WindSpeedKMH mph /  0 km/h - 11.4 mph /  18.3 km/h
Ráfagas de viento: WindSpeedGustKMH mph /  0 km/h - -
Viento:- - West
Pression baro: PressurehPa in /  0 hPa 1023.2 in /  34645.6 hPa -
Précipitaciones: 0.0 in /  0 mm    
Historical Graphs
 
 
Datos de tabla para January 3, 2017
Tiempo Temperatura Punto de rocío Pression baro Viento Velocidad del Viento Ráfagas de viento Humedad Las precipitaciones Rate ( Hora )
TemperatureC °F /  -17.8 °C DewpointC °F /  -17.8 °C PressurehPa in /  0 hPa Calm     Humidity % HourlyPrecipMM in /  0 mm
00:01 11.2 °F /  -11.6 °C 8.0 °F /  -13.3 °C 1023.6 in /  34659.1 hPa North 16.7 mph /  26.9 km/h 16.7 mph /  26.9 km/h 81 % 0.0 in /  0 mm
00:06 11.1 °F /  -11.6 °C 7.9 °F /  -13.4 °C 1023.6 in /  34659.1 hPa NNE 20.4 mph /  32.8 km/h 20.4 mph /  32.8 km/h 81 % 0.0 in /  0 mm
00:11 11.1 °F /  -11.6 °C 7.9 °F /  -13.4 °C 1023.6 in /  34659.1 hPa North 18.5 mph /  29.8 km/h 18.5 mph /  29.8 km/h 81 % 0.0 in /  0 mm
00:16 11.1 °F /  -11.6 °C 7.9 °F /  -13.4 °C 1023.6 in /  34659.1 hPa North 20.4 mph /  32.8 km/h 20.4 mph /  32.8 km/h 81 % 0.0 in /  0 mm
00:21 11.1 °F /  -11.6 °C 7.7 °F /  -13.5 °C 1023.6 in /  34659.1 hPa North 18.5 mph /  29.8 km/h 18.5 mph /  29.8 km/h 80 % 0.0 in /  0 mm
00:26 11.0 °F /  -11.7 °C 7.9 °F /  -13.4 °C 1023.6 in /  34659.1 hPa North 18.5 mph /  29.8 km/h 18.5 mph /  29.8 km/h 81 % 0.0 in /  0 mm
00:31 10.9 °F /  -11.7 °C 7.6 °F /  -13.6 °C 1023.6 in /  34659.1 hPa North 18.5 mph /  29.8 km/h 18.5 mph /  29.8 km/h 80 % 0.0 in /  0 mm
00:36 10.9 °F /  -11.7 °C 7.6 °F /  -13.6 °C 1023.6 in /  34659.1 hPa North 18.5 mph /  29.8 km/h 18.5 mph /  29.8 km/h 80 % 0.0 in /  0 mm
00:41 10.9 °F /  -11.7 °C 7.8 °F /  -13.4 °C 1023.6 in /  34659.1 hPa North 14.8 mph /  23.8 km/h 14.8 mph /  23.8 km/h 81 % 0.0 in /  0 mm
00:46 10.8 °F /  -11.8 °C 7.7 °F /  -13.5 °C 1023.6 in /  34659.1 hPa NNE 13.0 mph /  20.9 km/h 13.0 mph /  20.9 km/h 81 % 0.0 in /  0 mm
00:51 10.8 °F /  -11.8 °C 7.7 °F /  -13.5 °C 1023.6 in /  34659.1 hPa North 18.5 mph /  29.8 km/h 18.5 mph /  29.8 km/h 81 % 0.0 in /  0 mm
00:56 10.8 °F /  -11.8 °C 7.7 °F /  -13.5 °C 1023.6 in /  34659.1 hPa North 18.5 mph /  29.8 km/h 18.5 mph /  29.8 km/h 81 % 0.0 in /  0 mm
01:01 10.8 °F /  -11.8 °C 7.7 °F /  -13.5 °C 1023.6 in /  34659.1 hPa North 16.7 mph /  26.9 km/h 16.7 mph /  26.9 km/h 81 % 0.0 in /  0 mm
01:06 10.8 °F /  -11.8 °C 7.7 °F /  -13.5 °C 1023.6 in /  34659.1 hPa North 14.8 mph /  23.8 km/h 14.8 mph /  23.8 km/h 81 % 0.0 in /  0 mm
01:11 10.8 °F /  -11.8 °C 7.7 °F /  -13.5 °C 1023.2 in /  34645.6 hPa North 18.5 mph /  29.8 km/h 18.5 mph /  29.8 km/h 81 % 0.0 in /  0 mm
01:17 10.8 °F /  -11.8 °C 7.7 °F /  -13.5 °C 1023.2 in /  34645.6 hPa North 18.5 mph /  29.8 km/h 18.5 mph /  29.8 km/h 81 % 0.0 in /  0 mm
01:22 10.8 °F /  -11.8 °C 7.7 °F /  -13.5 °C 1023.2 in /  34645.6 hPa North 18.5 mph /  29.8 km/h 18.5 mph /  29.8 km/h 81 % 0.0 in /  0 mm
01:27 10.8 °F /  -11.8 °C 7.7 °F /  -13.5 °C 1023.2 in /  34645.6 hPa North 18.5 mph /  29.8 km/h 18.5 mph /  29.8 km/h 81 % 0.0 in /  0 mm
01:32 10.8 °F /  -11.8 °C 7.7 °F /  -13.5 °C 1023.2 in /  34645.6 hPa NNE 16.7 mph /  26.9 km/h 16.7 mph /  26.9 km/h 81 % 0.0 in /  0 mm
01:37 10.7 °F /  -11.8 °C 7.6 °F /  -13.6 °C 1023.2 in /  34645.6 hPa NNW 18.5 mph /  29.8 km/h 18.5 mph /  29.8 km/h 81 % 0.0 in /  0 mm
01:42 10.7 °F /  -11.8 °C 7.6 °F /  -13.6 °C 1023.2 in /  34645.6 hPa NNW 18.5 mph /  29.8 km/h 18.5 mph /  29.8 km/h 81 % 0.0 in /  0 mm
01:47 10.7 °F /  -11.8 °C 7.6 °F /  -13.6 °C 1023.2 in /  34645.6 hPa North 18.5 mph /  29.8 km/h 18.5 mph /  29.8 km/h 81 % 0.0 in /  0 mm
01:52 10.7 °F /  -11.8 °C 7.6 °F /  -13.6 °C 1023.2 in /  34645.6 hPa North 18.5 mph /  29.8 km/h 18.5 mph /  29.8 km/h 81 % 0.0 in /  0 mm
01:57 10.7 °F /  -11.8 °C 7.6 °F /  -13.6 °C 1023.2 in /  34645.6 hPa NNE 16.7 mph /  26.9 km/h 16.7 mph /  26.9 km/h 81 % 0.0 in /  0 mm
02:02 10.7 °F /  -11.8 °C 7.6 °F /  -13.6 °C 1023.2 in /  34645.6 hPa North 14.8 mph /  23.8 km/h 14.8 mph /  23.8 km/h 81 % 0.0 in /  0 mm
02:07 10.8 °F /  -11.8 °C 7.7 °F /  -13.5 °C 1023.2 in /  34645.6 hPa NNE 11.1 mph /  17.9 km/h 11.1 mph /  17.9 km/h 81 % 0.0 in /  0 mm
02:12 10.8 °F /  -11.8 °C 7.7 °F /  -13.5 °C 1023.2 in /  34645.6 hPa NNW 16.7 mph /  26.9 km/h 16.7 mph /  26.9 km/h 81 % 0.0 in /  0 mm
02:17 10.9 °F /  -11.7 °C 7.6 °F /  -13.6 °C 1023.2 in /  34645.6 hPa NNW 14.8 mph /  23.8 km/h 14.8 mph /  23.8 km/h 80 % 0.0 in /  0 mm
02:27 10.8 °F /  -11.8 °C 7.5 °F /  -13.6 °C 1023.2 in /  34645.6 hPa North 16.7 mph /  26.9 km/h 16.7 mph /  26.9 km/h 80 % 0.0 in /  0 mm
02:32 10.8 °F /  -11.8 °C 7.5 °F /  -13.6 °C 1023.2 in /  34645.6 hPa NNW 13.0 mph /  20.9 km/h 13.0 mph /  20.9 km/h 80 % 0.0 in /  0 mm
02:37 10.8 °F /  -11.8 °C 7.4 °F /  -13.7 °C 1023.2 in /  34645.6 hPa NNW 16.7 mph /  26.9 km/h 16.7 mph /  26.9 km/h 80 % 0.0 in /  0 mm
02:42 10.7 °F /  -11.8 °C 7.3 °F /  -13.7 °C 1023.2 in /  34645.6 hPa NNE 19.3 mph /  31.1 km/h 19.3 mph /  31.1 km/h 80 % 0.0 in /  0 mm
02:47 10.6 °F /  -11.9 °C 7.2 °F /  -13.8 °C 1023.2 in /  34645.6 hPa North 14.8 mph /  23.8 km/h 14.8 mph /  23.8 km/h 80 % 0.0 in /  0 mm
02:52 10.4 °F /  -12 °C 7.3 °F /  -13.7 °C 1023.2 in /  34645.6 hPa North 14.8 mph /  23.8 km/h 14.8 mph /  23.8 km/h 81 % 0.0 in /  0 mm
02:57 10.4 °F /  -12 °C 7.3 °F /  -13.7 °C 1023.2 in /  34645.6 hPa NNW 14.8 mph /  23.8 km/h 14.8 mph /  23.8 km/h 81 % 0.0 in /  0 mm
03:02 10.4 °F /  -12 °C 7.3 °F /  -13.7 °C 1023.2 in /  34645.6 hPa North 18.5 mph /  29.8 km/h 18.5 mph /  29.8 km/h 81 % 0.0 in /  0 mm
03:07 10.3 °F /  -12.1 °C 7.2 °F /  -13.8 °C 1023.2 in /  34645.6 hPa North 18.5 mph /  29.8 km/h 18.5 mph /  29.8 km/h 81 % 0.0 in /  0 mm
03:12 10.3 °F /  -12.1 °C 7.2 °F /  -13.8 °C 1023.2 in /  34645.6 hPa NNW 18.5 mph /  29.8 km/h 18.5 mph /  29.8 km/h 81 % 0.0 in /  0 mm
03:17 10.3 °F /  -12.1 °C 7.2 °F /  -13.8 °C 1023.2 in /  34645.6 hPa North 16.7 mph /  26.9 km/h 16.7 mph /  26.9 km/h 81 % 0.0 in /  0 mm
03:22 10.2 °F /  -12.1 °C 7.3 °F /  -13.7 °C 1023.2 in /  34645.6 hPa North 14.8 mph /  23.8 km/h 14.8 mph /  23.8 km/h 82 % 0.0 in /  0 mm
03:27 10.2 °F /  -12.1 °C 7.3 °F /  -13.7 °C 1023.2 in /  34645.6 hPa North 16.7 mph /  26.9 km/h 16.7 mph /  26.9 km/h 82 % 0.0 in /  0 mm
03:32 10.2 °F /  -12.1 °C 7.3 °F /  -13.7 °C 1023.2 in /  34645.6 hPa NNW 16.1 mph /  25.9 km/h 16.1 mph /  25.9 km/h 82 % 0.0 in /  0 mm
03:37 10.2 °F /  -12.1 °C 7.3 °F /  -13.7 °C 1023.2 in /  34645.6 hPa North 14.8 mph /  23.8 km/h 14.8 mph /  23.8 km/h 82 % 0.0 in /  0 mm
03:42 10.2 °F /  -12.1 °C 7.2 °F /  -13.8 °C 1023.2 in /  34645.6 hPa North 14.8 mph /  23.8 km/h 14.8 mph /  23.8 km/h 82 % 0.0 in /  0 mm
03:47 10.2 °F /  -12.1 °C 7.2 °F /  -13.8 °C 1023.2 in /  34645.6 hPa North 16.7 mph /  26.9 km/h 16.7 mph /  26.9 km/h 82 % 0.0 in /  0 mm
03:52 10.1 °F /  -12.2 °C 7.2 °F /  -13.8 °C 1023.2 in /  34645.6 hPa North 14.8 mph /  23.8 km/h 14.8 mph /  23.8 km/h 82 % 0.0 in /  0 mm
03:57 10.1 °F /  -12.2 °C 7.1 °F /  -13.8 °C 1023.2 in /  34645.6 hPa North 16.7 mph /  26.9 km/h 16.7 mph /  26.9 km/h 82 % 0.0 in /  0 mm
04:02 10.1 °F /  -12.2 °C 7.1 °F /  -13.8 °C 1023.6 in /  34659.1 hPa North 13.0 mph /  20.9 km/h 13.0 mph /  20.9 km/h 82 % 0.0 in /  0 mm
04:07 10.1 °F /  -12.2 °C 7.1 °F /  -13.8 °C 1023.6 in /  34659.1 hPa NNW 13.0 mph /  20.9 km/h 13.0 mph /  20.9 km/h 82 % 0.0 in /  0 mm
04:12 10.1 °F /  -12.2 °C 7.1 °F /  -13.8 °C 1023.6 in /  34659.1 hPa NNW 13.0 mph /  20.9 km/h 13.0 mph /  20.9 km/h 82 % 0.0 in /  0 mm
04:17 10.1 °F /  -12.2 °C 7.1 °F /  -13.8 °C 1023.2 in /  34645.6 hPa NNW 16.7 mph /  26.9 km/h 16.7 mph /  26.9 km/h 82 % 0.0 in /  0 mm
04:22 10.0 °F /  -12.2 °C 7.1 °F /  -13.8 °C 1023.2 in /  34645.6 hPa North 13.0 mph /  20.9 km/h 13.0 mph /  20.9 km/h 82 % 0.0 in /  0 mm
04:27 10.0 °F /  -12.2 °C 7.2 °F /  -13.8 °C 1023.2 in /  34645.6 hPa North 18.5 mph /  29.8 km/h 18.5 mph /  29.8 km/h 83 % 0.0 in /  0 mm
04:32 10.0 °F /  -12.2 °C 7.2 °F /  -13.8 °C 1023.2 in /  34645.6 hPa North 16.7 mph /  26.9 km/h 16.7 mph /  26.9 km/h 83 % 0.0 in /  0 mm
04:37 9.9 °F /  -12.3 °C 7.2 °F /  -13.8 °C 1023.2 in /  34645.6 hPa North 16.7 mph /  26.9 km/h 16.7 mph /  26.9 km/h 83 % 0.0 in /  0 mm
04:42 9.9 °F /  -12.3 °C 7.2 °F /  -13.8 °C 1023.2 in /  34645.6 hPa North 13.0 mph /  20.9 km/h 13.0 mph /  20.9 km/h 83 % 0.0 in /  0 mm
04:47 9.9 °F /  -12.3 °C 7.1 °F /  -13.8 °C 1023.2 in /  34645.6 hPa North 14.8 mph /  23.8 km/h 14.8 mph /  23.8 km/h 83 % 0.0 in /  0 mm
04:52 9.9 °F /  -12.3 °C 7.2 °F /  -13.8 °C 1023.2 in /  34645.6 hPa NNW 16.7 mph /  26.9 km/h 16.7 mph /  26.9 km/h 83 % 0.0 in /  0 mm
04:57 9.9 °F /  -12.3 °C 7.2 °F /  -13.8 °C 1023.2 in /  34645.6 hPa NNW 14.8 mph /  23.8 km/h 14.8 mph /  23.8 km/h 83 % 0.0 in /  0 mm
05:02 9.9 °F /  -12.3 °C 7.2 °F /  -13.8 °C 1023.2 in /  34645.6 hPa North 18.5 mph /  29.8 km/h 18.5 mph /  29.8 km/h 83 % 0.0 in /  0 mm
05:07 9.9 °F /  -12.3 °C 7.2 °F /  -13.8 °C 1023.2 in /  34645.6 hPa North 14.8 mph /  23.8 km/h 14.8 mph /  23.8 km/h 83 % 0.0 in /  0 mm
05:12 9.9 °F /  -12.3 °C 7.2 °F /  -13.8 °C 1023.2 in /  34645.6 hPa North 14.8 mph /  23.8 km/h 14.8 mph /  23.8 km/h 83 % 0.0 in /  0 mm
05:17 9.9 °F /  -12.3 °C 7.2 °F /  -13.8 °C 1023.2 in /  34645.6 hPa NNW 16.7 mph /  26.9 km/h 16.7 mph /  26.9 km/h 83 % 0.0 in /  0 mm
05:22 9.9 °F /  -12.3 °C 7.2 °F /  -13.8 °C 1023.2 in /  34645.6 hPa NNW 11.1 mph /  17.9 km/h 11.1 mph /  17.9 km/h 83 % 0.0 in /  0 mm
05:27 10.0 °F /  -12.2 °C 7.2 °F /  -13.8 °C 1023.2 in /  34645.6 hPa NNW 14.8 mph /  23.8 km/h 14.8 mph /  23.8 km/h 83 % 0.0 in /  0 mm
05:32 10.0 °F /  -12.2 °C 7.2 °F /  -13.8 °C 1023.2 in /  34645.6 hPa North 13.0 mph /  20.9 km/h 13.0 mph /  20.9 km/h 83 % 0.0 in /  0 mm
05:37 10.0 °F /  -12.2 °C 7.2 °F /  -13.8 °C 1023.2 in /  34645.6 hPa North 13.0 mph /  20.9 km/h 13.0 mph /  20.9 km/h 83 % 0.0 in /  0 mm
05:42 10.0 °F /  -12.2 °C 7.2 °F /  -13.8 °C 1023.6 in /  34659.1 hPa North 14.8 mph /  23.8 km/h 14.8 mph /  23.8 km/h 83 % 0.0 in /  0 mm
05:47 9.9 °F /  -12.3 °C 7.2 °F /  -13.8 °C 1023.6 in /  34659.1 hPa North 14.8 mph /  23.8 km/h 14.8 mph /  23.8 km/h 83 % 0.0 in /  0 mm
05:52 9.9 °F /  -12.3 °C 7.2 °F /  -13.8 °C 1023.6 in /  34659.1 hPa North 14.8 mph /  23.8 km/h 14.8 mph /  23.8 km/h 83 % 0.0 in /  0 mm
05:57 9.9 °F /  -12.3 °C 7.2 °F /  -13.8 °C 1023.6 in /  34659.1 hPa NNW 14.8 mph /  23.8 km/h 14.8 mph /  23.8 km/h 83 % 0.0 in /  0 mm
06:02 9.9 °F /  -12.3 °C 7.2 °F /  -13.8 °C 1023.6 in /  34659.1 hPa North 16.7 mph /  26.9 km/h 16.7 mph /  26.9 km/h 83 % 0.0 in /  0 mm
06:07 9.9 °F /  -12.3 °C 7.2 °F /  -13.8 °C 1023.2 in /  34645.6 hPa North 13.0 mph /  20.9 km/h 13.0 mph /  20.9 km/h 83 % 0.0 in /  0 mm
06:13 10.0 °F /  -12.2 °C 7.2 °F /  -13.8 °C 1023.2 in /  34645.6 hPa North 14.8 mph /  23.8 km/h 14.8 mph /  23.8 km/h 83 % 0.0 in /  0 mm
06:17 10.0 °F /  -12.2 °C 7.2 °F /  -13.8 °C 1023.2 in /  34645.6 hPa North 16.7 mph /  26.9 km/h 16.7 mph /  26.9 km/h 83 % 0.0 in /  0 mm
06:22 10.0 °F /  -12.2 °C 7.2 °F /  -13.8 °C 1023.2 in /  34645.6 hPa North 14.8 mph /  23.8 km/h 14.8 mph /  23.8 km/h 83 % 0.0 in /  0 mm
06:27 9.9 °F /  -12.3 °C 7.2 °F /  -13.8 °C 1023.6 in /  34659.1 hPa North 13.0 mph /  20.9 km/h 13.0 mph /  20.9 km/h 83 % 0.0 in /  0 mm
06:32 10.0 °F /  -12.2 °C 7.2 °F /  -13.8 °C 1023.6 in /  34659.1 hPa North 13.0 mph /  20.9 km/h 13.0 mph /  20.9 km/h 83 % 0.0 in /  0 mm
06:38 10.0 °F /  -12.2 °C 7.2 °F /  -13.8 °C 1023.6 in /  34659.1 hPa North 14.5 mph /  23.3 km/h 14.5 mph /  23.3 km/h 83 % 0.0 in /  0 mm
06:43 10.0 °F /  -12.2 °C 7.2 °F /  -13.8 °C 1023.6 in /  34659.1 hPa NNW 13.0 mph /  20.9 km/h 13.0 mph /  20.9 km/h 83 % 0.0 in /  0 mm
06:48 10.0 °F /  -12.2 °C 7.2 °F /  -13.8 °C 1023.6 in /  34659.1 hPa North 14.8 mph /  23.8 km/h 14.8 mph /  23.8 km/h 83 % 0.0 in /  0 mm
06:53 10.0 °F /  -12.2 °C 7.2 °F /  -13.8 °C 1023.6 in /  34659.1 hPa NNW 14.8 mph /  23.8 km/h 14.8 mph /  23.8 km/h 83 % 0.0 in /  0 mm
06:58 10.0 °F /  -12.2 °C 7.2 °F /  -13.8 °C 1023.6 in /  34659.1 hPa North 11.1 mph /  17.9 km/h 11.1 mph /  17.9 km/h 83 % 0.0 in /  0 mm
07:03 10.0 °F /  -12.2 °C 7.2 °F /  -13.8 °C 1023.6 in /  34659.1 hPa NNW 16.7 mph /  26.9 km/h 16.7 mph /  26.9 km/h 83 % 0.0 in /  0 mm
07:08 9.9 °F /  -12.3 °C 7.2 °F /  -13.8 °C 1023.6 in /  34659.1 hPa North 13.0 mph /  20.9 km/h 13.0 mph /  20.9 km/h 83 % 0.0 in /  0 mm
07:13 9.9 °F /  -12.3 °C 7.2 °F /  -13.8 °C 1023.6 in /  34659.1 hPa North 14.8 mph /  23.8 km/h 14.8 mph /  23.8 km/h 83 % 0.0 in /  0 mm
07:18 9.9 °F /  -12.3 °C 7.2 °F /  -13.8 °C 1023.6 in /  34659.1 hPa North 16.7 mph /  26.9 km/h 16.7 mph /  26.9 km/h 83 % 0.0 in /  0 mm
07:23 10.0 °F /  -12.2 °C 7.2 °F /  -13.8 °C 1023.6 in /  34659.1 hPa North 13.0 mph /  20.9 km/h 13.0 mph /  20.9 km/h 83 % 0.0 in /  0 mm
07:28 10.0 °F /  -12.2 °C 7.2 °F /  -13.8 °C 1023.9 in /  34669.3 hPa NNW 13.0 mph /  20.9 km/h 13.0 mph /  20.9 km/h 83 % 0.0 in /  0 mm
07:33 10.0 °F /  -12.2 °C 7.2 °F /  -13.8 °C 1023.9 in /  34669.3 hPa North 18.5 mph /  29.8 km/h 18.5 mph /  29.8 km/h 83 % 0.0 in /  0 mm
07:38 10.0 °F /  -12.2 °C 7.4 °F /  -13.7 °C 1023.9 in /  34669.3 hPa North 14.8 mph /  23.8 km/h 14.8 mph /  23.8 km/h 84 % 0.0 in /  0 mm
07:43 10.0 °F /  -12.2 °C 7.4 °F /  -13.7 °C 1023.9 in /  34669.3 hPa North 16.1 mph /  25.9 km/h 16.1 mph /  25.9 km/h 84 % 0.0 in /  0 mm
07:48 9.9 °F /  -12.3 °C 7.4 °F /  -13.7 °C 1023.9 in /  34669.3 hPa North 13.0 mph /  20.9 km/h 13.0 mph /  20.9 km/h 84 % 0.0 in /  0 mm
07:53 9.9 °F /  -12.3 °C 7.4 °F /  -13.7 °C 1023.9 in /  34669.3 hPa North 13.0 mph /  20.9 km/h 13.0 mph /  20.9 km/h 84 % 0.0 in /  0 mm
07:58 10.0 °F /  -12.2 °C 7.4 °F /  -13.7 °C 1023.9 in /  34669.3 hPa North 16.1 mph /  25.9 km/h 16.1 mph /  25.9 km/h 84 % 0.0 in /  0 mm
08:03 10.0 °F /  -12.2 °C 7.4 °F /  -13.7 °C 1024.3 in /  34682.8 hPa NNW 16.7 mph /  26.9 km/h 16.7 mph /  26.9 km/h 84 % 0.0 in /  0 mm
08:08 10.0 °F /  -12.2 °C 7.4 °F /  -13.7 °C 1024.3 in /  34682.8 hPa North 13.0 mph /  20.9 km/h 13.0 mph /  20.9 km/h 84 % 0.0 in /  0 mm
08:13 10.0 °F /  -12.2 °C 7.4 °F /  -13.7 °C 1024.3 in /  34682.8 hPa North 14.8 mph /  23.8 km/h 14.8 mph /  23.8 km/h 84 % 0.0 in /  0 mm
08:18 9.9 °F /  -12.3 °C 7.4 °F /  -13.7 °C 1024.3 in /  34682.8 hPa NNW 14.8 mph /  23.8 km/h 14.8 mph /  23.8 km/h 84 % 0.0 in /  0 mm
08:23 9.9 °F /  -12.3 °C 7.4 °F /  -13.7 °C 1024.3 in /  34682.8 hPa NNW 16.7 mph /  26.9 km/h 16.7 mph /  26.9 km/h 84 % 0.0 in /  0 mm
08:28 9.9 °F /  -12.3 °C 7.4 °F /  -13.7 °C 1024.3 in /  34682.8 hPa North 16.7 mph /  26.9 km/h 16.7 mph /  26.9 km/h 84 % 0.0 in /  0 mm
08:33 9.9 °F /  -12.3 °C 7.4 °F /  -13.7 °C 1024.3 in /  34682.8 hPa NNW 16.7 mph /  26.9 km/h 16.7 mph /  26.9 km/h 84 % 0.0 in /  0 mm
08:38 9.9 °F /  -12.3 °C 7.4 °F /  -13.7 °C 1024.3 in /  34682.8 hPa North 16.7 mph /  26.9 km/h 16.7 mph /  26.9 km/h 84 % 0.0 in /  0 mm
08:43 10.0 °F /  -12.2 °C 7.4 °F /  -13.7 °C 1024.3 in /  34682.8 hPa NNW 14.8 mph /  23.8 km/h 14.8 mph /  23.8 km/h 84 % 0.0 in /  0 mm
08:48 10.1 °F /  -12.2 °C 7.5 °F /  -13.6 °C 1024.3 in /  34682.8 hPa NNW 14.8 mph /  23.8 km/h 14.8 mph /  23.8 km/h 84 % 0.0 in /  0 mm
08:53 10.1 °F /  -12.2 °C 7.5 °F /  -13.6 °C 1024.3 in /  34682.8 hPa North 16.7 mph /  26.9 km/h 16.7 mph /  26.9 km/h 84 % 0.0 in /  0 mm
08:58 10.1 °F /  -12.2 °C 7.6 °F /  -13.6 °C 1024.3 in /  34682.8 hPa North 14.8 mph /  23.8 km/h 14.8 mph /  23.8 km/h 84 % 0.0 in /  0 mm
09:03 10.1 °F /  -12.2 °C 7.6 °F /  -13.6 °C 1024.6 in /  34693 hPa North 16.7 mph /  26.9 km/h 16.7 mph /  26.9 km/h 84 % 0.0 in /  0 mm
09:08 10.2 °F /  -12.1 °C 7.6 °F /  -13.6 °C 1024.6 in /  34693 hPa North 16.7 mph /  26.9 km/h 16.7 mph /  26.9 km/h 84 % 0.0 in /  0 mm
09:13 10.2 °F /  -12.1 °C 7.6 °F /  -13.6 °C 1024.6 in /  34693 hPa NNW 16.7 mph /  26.9 km/h 16.7 mph /  26.9 km/h 84 % 0.0 in /  0 mm
09:18 10.3 °F /  -12.1 °C 7.7 °F /  -13.5 °C 1024.6 in /  34693 hPa North 13.0 mph /  20.9 km/h 13.0 mph /  20.9 km/h 84 % 0.0 in /  0 mm
09:23 10.3 °F /  -12.1 °C 7.7 °F /  -13.5 °C 1024.6 in /  34693 hPa NNW 12.9 mph /  20.8 km/h 12.9 mph /  20.8 km/h 84 % 0.0 in /  0 mm
09:28 10.4 °F /  -12 °C 7.8 °F /  -13.4 °C 1024.6 in /  34693 hPa North 14.8 mph /  23.8 km/h 14.8 mph /  23.8 km/h 84 % 0.0 in /  0 mm
09:33 10.6 °F /  -11.9 °C 7.8 °F /  -13.4 °C 1024.6 in /  34693 hPa NNW 13.0 mph /  20.9 km/h 13.0 mph /  20.9 km/h 83 % 0.0 in /  0 mm
09:38 10.6 °F /  -11.9 °C 7.8 °F /  -13.4 °C 1024.9 in /  34703.1 hPa North 11.3 mph /  18.2 km/h 11.3 mph /  18.2 km/h 83 % 0.0 in /  0 mm
09:43 10.7 °F /  -11.8 °C 7.9 °F /  -13.4 °C 1024.9 in /  34703.1 hPa NNW 13.0 mph /  20.9 km/h 13.0 mph /  20.9 km/h 83 % 0.0 in /  0 mm
09:48 10.8 °F /  -11.8 °C 8.0 °F /  -13.3 °C 1024.9 in /  34703.1 hPa North 13.0 mph /  20.9 km/h 13.0 mph /  20.9 km/h 83 % 0.0 in /  0 mm
09:53 10.8 °F /  -11.8 °C 8.1 °F /  -13.3 °C 1024.9 in /  34703.1 hPa North 13.0 mph /  20.9 km/h 13.0 mph /  20.9 km/h 83 % 0.0 in /  0 mm
09:58 11.0 °F /  -11.7 °C 8.2 °F /  -13.2 °C 1025.3 in /  34716.7 hPa North 13.0 mph /  20.9 km/h 13.0 mph /  20.9 km/h 83 % 0.0 in /  0 mm
10:03 11.1 °F /  -11.6 °C 8.3 °F /  -13.2 °C 1025.3 in /  34716.7 hPa North 9.3 mph /  15 km/h 9.3 mph /  15 km/h 83 % 0.0 in /  0 mm
10:08 11.2 °F /  -11.6 °C 8.4 °F /  -13.1 °C 1025.3 in /  34716.7 hPa North 14.8 mph /  23.8 km/h 14.8 mph /  23.8 km/h 83 % 0.0 in /  0 mm
10:13 11.3 °F /  -11.5 °C 8.4 °F /  -13.1 °C 1025.3 in /  34716.7 hPa North 9.7 mph /  15.6 km/h 9.7 mph /  15.6 km/h 82 % 0.0 in /  0 mm
10:18 11.4 °F /  -11.4 °C 8.4 °F /  -13.1 °C 1025.3 in /  34716.7 hPa NNW 11.3 mph /  18.2 km/h 11.3 mph /  18.2 km/h 82 % 0.0 in /  0 mm
10:23 11.5 °F /  -11.4 °C 8.6 °F /  -13 °C 1025.3 in /  34716.7 hPa North 13.0 mph /  20.9 km/h 13.0 mph /  20.9 km/h 82 % 0.0 in /  0 mm
10:28 11.7 °F /  -11.3 °C 8.7 °F /  -12.9 °C 1025.6 in /  34726.8 hPa NNW 9.3 mph /  15 km/h 9.3 mph /  15 km/h 82 % 0.0 in /  0 mm
10:33 11.8 °F /  -11.2 °C 8.8 °F /  -12.9 °C 1025.6 in /  34726.8 hPa North 13.0 mph /  20.9 km/h 13.0 mph /  20.9 km/h 82 % 0.0 in /  0 mm
10:38 11.9 °F /  -11.2 °C 8.8 °F /  -12.9 °C 1025.6 in /  34726.8 hPa North 9.3 mph /  15 km/h 9.3 mph /  15 km/h 81 % 0.0 in /  0 mm
10:43 12.2 °F /  -11 °C 9.0 °F /  -12.8 °C 1025.6 in /  34726.8 hPa North 8.0 mph /  12.9 km/h 8.0 mph /  12.9 km/h 81 % 0.0 in /  0 mm
10:48 12.3 °F /  -10.9 °C 9.2 °F /  -12.7 °C 1026.0 in /  34740.4 hPa NNW 7.4 mph /  11.9 km/h 7.4 mph /  11.9 km/h 81 % 0.0 in /  0 mm
10:53 12.6 °F /  -10.8 °C 9.4 °F /  -12.6 °C 1026.0 in /  34740.4 hPa North 7.4 mph /  11.9 km/h 7.4 mph /  11.9 km/h 81 % 0.0 in /  0 mm
10:58 12.8 °F /  -10.7 °C 9.7 °F /  -12.4 °C 1026.0 in /  34740.4 hPa North 7.4 mph /  11.9 km/h 7.4 mph /  11.9 km/h 81 % 0.0 in /  0 mm
11:03 13.1 °F /  -10.5 °C 9.7 °F /  -12.4 °C 1026.0 in /  34740.4 hPa North 5.6 mph /  9 km/h 5.6 mph /  9 km/h 80 % 0.0 in /  0 mm
11:08 13.3 °F /  -10.4 °C 9.9 °F /  -12.3 °C 1026.0 in /  34740.4 hPa North 5.6 mph /  9 km/h 5.6 mph /  9 km/h 80 % 0.0 in /  0 mm
11:13 13.7 °F /  -10.2 °C 10.1 °F /  -12.2 °C 1026.0 in /  34740.4 hPa North 3.7 mph /  6 km/h 3.7 mph /  6 km/h 79 % 0.0 in /  0 mm
11:18 13.9 °F /  -10.1 °C 10.3 °F /  -12.1 °C 1026.0 in /  34740.4 hPa North 1.9 mph /  3.1 km/h   79 % 0.0 in /  0 mm
11:23 14.3 °F /  -9.8 °C 10.7 °F /  -11.8 °C 1026.0 in /  34740.4 hPa Calm     79 % 0.0 in /  0 mm
11:28 14.7 °F /  -9.6 °C 10.9 °F /  -11.7 °C 1026.0 in /  34740.4 hPa Calm     78 % 0.0 in /  0 mm
11:33 14.9 °F /  -9.5 °C 10.9 °F /  -11.7 °C 1026.0 in /  34740.4 hPa Calm     77 % 0.0 in /  0 mm
11:38 15.1 °F /  -9.4 °C 10.9 °F /  -11.7 °C 1026.0 in /  34740.4 hPa WSW 5.6 mph /  9 km/h 5.6 mph /  9 km/h 76 % 0.0 in /  0 mm
11:43 15.2 °F /  -9.3 °C 11.0 °F /  -11.7 °C 1026.0 in /  34740.4 hPa WSW 5.6 mph /  9 km/h 5.6 mph /  9 km/h 76 % 0.0 in /  0 mm
11:48 15.3 °F /  -9.3 °C 11.1 °F /  -11.6 °C 1026.0 in /  34740.4 hPa WSW 5.6 mph /  9 km/h 5.6 mph /  9 km/h 76 % 0.0 in /  0 mm
11:53 15.2 °F /  -9.3 °C 10.8 °F /  -11.8 °C 1026.0 in /  34740.4 hPa SW 7.4 mph /  11.9 km/h 7.4 mph /  11.9 km/h 75 % 0.0 in /  0 mm
11:59 15.2 °F /  -9.3 °C 10.8 °F /  -11.8 °C 1026.0 in /  34740.4 hPa WSW 7.4 mph /  11.9 km/h 7.4 mph /  11.9 km/h 75 % 0.0 in /  0 mm
12:04 15.1 °F /  -9.4 °C 10.7 °F /  -11.8 °C 1026.0 in /  34740.4 hPa WSW 7.4 mph /  11.9 km/h 7.4 mph /  11.9 km/h 75 % 0.0 in /  0 mm
12:09 15.1 °F /  -9.4 °C 10.8 °F /  -11.8 °C 1026.0 in /  34740.4 hPa WSW 9.3 mph /  15 km/h 9.3 mph /  15 km/h 76 % 0.0 in /  0 mm
12:14 15.1 °F /  -9.4 °C 10.8 °F /  -11.8 °C 1026.0 in /  34740.4 hPa WSW 8.0 mph /  12.9 km/h 8.0 mph /  12.9 km/h 76 % 0.0 in /  0 mm
12:19 15.1 °F /  -9.4 °C 11.1 °F /  -11.6 °C 1026.0 in /  34740.4 hPa WSW 8.0 mph /  12.9 km/h 8.0 mph /  12.9 km/h 77 % 0.0 in /  0 mm
12:24 15.0 °F /  -9.4 °C 11.0 °F /  -11.7 °C 1026.0 in /  34740.4 hPa SW 11.3 mph /  18.2 km/h 11.3 mph /  18.2 km/h 77 % 0.0 in /  0 mm
12:29 14.9 °F /  -9.5 °C 10.9 °F /  -11.7 °C 1025.6 in /  34726.8 hPa WSW 9.3 mph /  15 km/h 9.3 mph /  15 km/h 77 % 0.0 in /  0 mm
12:34 15.0 °F /  -9.4 °C 11.2 °F /  -11.6 °C 1025.6 in /  34726.8 hPa WSW 8.0 mph /  12.9 km/h 8.0 mph /  12.9 km/h 78 % 0.0 in /  0 mm
12:39 14.9 °F /  -9.5 °C 10.9 °F /  -11.7 °C 1025.6 in /  34726.8 hPa WSW 9.3 mph /  15 km/h 9.3 mph /  15 km/h 77 % 0.0 in /  0 mm
12:44 14.9 °F /  -9.5 °C 10.9 °F /  -11.7 °C 1025.6 in /  34726.8 hPa WSW 9.3 mph /  15 km/h 9.3 mph /  15 km/h 77 % 0.0 in /  0 mm
12:49 14.9 °F /  -9.5 °C 10.9 °F /  -11.7 °C 1025.6 in /  34726.8 hPa WSW 11.1 mph /  17.9 km/h 11.1 mph /  17.9 km/h 77 % 0.0 in /  0 mm
12:54 15.0 °F /  -9.4 °C 11.0 °F /  -11.7 °C 1025.6 in /  34726.8 hPa WSW 9.3 mph /  15 km/h 9.3 mph /  15 km/h 77 % 0.0 in /  0 mm
12:59 15.0 °F /  -9.4 °C 11.0 °F /  -11.7 °C 1025.3 in /  34716.7 hPa WSW 7.4 mph /  11.9 km/h 7.4 mph /  11.9 km/h 77 % 0.0 in /  0 mm
13:04 15.0 °F /  -9.4 °C 11.0 °F /  -11.7 °C 1025.3 in /  34716.7 hPa WSW 9.3 mph /  15 km/h 9.3 mph /  15 km/h 77 % 0.0 in /  0 mm
13:09 15.0 °F /  -9.4 °C 11.0 °F /  -11.7 °C 1025.3 in /  34716.7 hPa SW 9.7 mph /  15.6 km/h 9.7 mph /  15.6 km/h 77 % 0.0 in /  0 mm
13:14 14.9 °F /  -9.5 °C 11.2 °F /  -11.6 °C 1025.3 in /  34716.7 hPa WSW 13.0 mph /  20.9 km/h 13.0 mph /  20.9 km/h 78 % 0.0 in /  0 mm
13:19 14.9 °F /  -9.5 °C 11.2 °F /  -11.6 °C 1024.9 in /  34703.1 hPa WSW 11.1 mph /  17.9 km/h 11.1 mph /  17.9 km/h 78 % 0.0 in /  0 mm
13:24 14.9 °F /  -9.5 °C 11.2 °F /  -11.6 °C 1024.9 in /  34703.1 hPa WSW 11.1 mph /  17.9 km/h 11.1 mph /  17.9 km/h 78 % 0.0 in /  0 mm
13:29 14.9 °F /  -9.5 °C 11.3 °F /  -11.5 °C 1024.9 in /  34703.1 hPa WSW 13.0 mph /  20.9 km/h 13.0 mph /  20.9 km/h 79 % 0.0 in /  0 mm
13:34 15.0 °F /  -9.4 °C 11.4 °F /  -11.4 °C 1024.9 in /  34703.1 hPa WSW 13.0 mph /  20.9 km/h 13.0 mph /  20.9 km/h 79 % 0.0 in /  0 mm
13:39 15.0 °F /  -9.4 °C 11.4 °F /  -11.4 °C 1024.9 in /  34703.1 hPa WSW 14.8 mph /  23.8 km/h 14.8 mph /  23.8 km/h 79 % 0.0 in /  0 mm
13:44 15.0 °F /  -9.4 °C 11.4 °F /  -11.4 °C 1024.9 in /  34703.1 hPa WSW 11.1 mph /  17.9 km/h 11.1 mph /  17.9 km/h 79 % 0.0 in /  0 mm
13:49 15.0 °F /  -9.4 °C 11.4 °F /  -11.4 °C 1024.9 in /  34703.1 hPa West 13.0 mph /  20.9 km/h 13.0 mph /  20.9 km/h 79 % 0.0 in /  0 mm
13:54 15.0 °F /  -9.4 °C 11.4 °F /  -11.4 °C 1024.9 in /  34703.1 hPa WSW 14.5 mph /  23.3 km/h 14.5 mph /  23.3 km/h 79 % 0.0 in /  0 mm
13:59 15.1 °F /  -9.4 °C 11.4 °F /  -11.4 °C 1024.9 in /  34703.1 hPa WSW 13.0 mph /  20.9 km/h 13.0 mph /  20.9 km/h 79 % 0.0 in /  0 mm
14:04 15.1 °F /  -9.4 °C 11.5 °F /  -11.4 °C 1024.6 in /  34693 hPa WSW 11.1 mph /  17.9 km/h 11.1 mph /  17.9 km/h 79 % 0.0 in /  0 mm
14:09 15.2 °F /  -9.3 °C 11.6 °F /  -11.3 °C 1024.6 in /  34693 hPa WSW 13.0 mph /  20.9 km/h 13.0 mph /  20.9 km/h 79 % 0.0 in /  0 mm
14:14 15.2 °F /  -9.3 °C 11.6 °F /  -11.3 °C 1024.6 in /  34693 hPa West 13.0 mph /  20.9 km/h 13.0 mph /  20.9 km/h 79 % 0.0 in /  0 mm
14:19 15.2 °F /  -9.3 °C 11.6 °F /  -11.3 °C 1024.6 in /  34693 hPa WSW 13.0 mph /  20.9 km/h 13.0 mph /  20.9 km/h 79 % 0.0 in /  0 mm
14:24 15.2 °F /  -9.3 °C 11.6 °F /  -11.3 °C 1024.6 in /  34693 hPa WSW 11.1 mph /  17.9 km/h 11.1 mph /  17.9 km/h 79 % 0.0 in /  0 mm
14:29 15.2 °F /  -9.3 °C 11.6 °F /  -11.3 °C 1024.6 in /  34693 hPa WSW 11.1 mph /  17.9 km/h 11.1 mph /  17.9 km/h 79 % 0.0 in /  0 mm
14:34 15.2 °F /  -9.3 °C 11.6 °F /  -11.3 °C 1024.6 in /  34693 hPa WSW 16.7 mph /  26.9 km/h 16.7 mph /  26.9 km/h 79 % 0.0 in /  0 mm
14:39 15.2 °F /  -9.3 °C 11.6 °F /  -11.3 °C 1024.3 in /  34682.8 hPa WSW 13.0 mph /  20.9 km/h 13.0 mph /  20.9 km/h 79 % 0.0 in /  0 mm
14:44 15.4 °F /  -9.2 °C 11.9 °F /  -11.2 °C 1024.3 in /  34682.8 hPa WSW 11.1 mph /  17.9 km/h 11.1 mph /  17.9 km/h 80 % 0.0 in /  0 mm
14:49 15.5 °F /  -9.2 °C 11.9 °F /  -11.2 °C 1024.3 in /  34682.8 hPa WSW 13.0 mph /  20.9 km/h 13.0 mph /  20.9 km/h 79 % 0.0 in /  0 mm
14:54 15.4 °F /  -9.2 °C 11.8 °F /  -11.2 °C 1024.3 in /  34682.8 hPa WSW 11.1 mph /  17.9 km/h 11.1 mph /  17.9 km/h 79 % 0.0 in /  0 mm
14:59 15.4 °F /  -9.2 °C 11.8 °F /  -11.2 °C 1024.3 in /  34682.8 hPa SW 9.7 mph /  15.6 km/h 9.7 mph /  15.6 km/h 79 % 0.0 in /  0 mm
15:04 15.4 °F /  -9.2 °C 11.8 °F /  -11.2 °C 1024.3 in /  34682.8 hPa SW 11.1 mph /  17.9 km/h 11.1 mph /  17.9 km/h 79 % 0.0 in /  0 mm
15:09 15.4 °F /  -9.2 °C 12.0 °F /  -11.1 °C 1024.3 in /  34682.8 hPa WSW 9.3 mph /  15 km/h 9.3 mph /  15 km/h 80 % 0.0 in /  0 mm
15:14 15.4 °F /  -9.2 °C 12.0 °F /  -11.1 °C 1024.3 in /  34682.8 hPa WSW 13.0 mph /  20.9 km/h 13.0 mph /  20.9 km/h 80 % 0.0 in /  0 mm
15:19 15.4 °F /  -9.2 °C 12.0 °F /  -11.1 °C 1024.3 in /  34682.8 hPa WSW 11.1 mph /  17.9 km/h 11.1 mph /  17.9 km/h 80 % 0.0 in /  0 mm
15:24 15.5 °F /  -9.2 °C 12.1 °F /  -11.1 °C 1024.3 in /  34682.8 hPa WSW 11.1 mph /  17.9 km/h 11.1 mph /  17.9 km/h 80 % 0.0 in /  0 mm
15:29 15.6 °F /  -9.1 °C 12.1 °F /  -11.1 °C 1024.6 in /  34693 hPa WSW 11.3 mph /  18.2 km/h 11.3 mph /  18.2 km/h 80 % 0.0 in /  0 mm
15:34 15.6 °F /  -9.1 °C 12.1 °F /  -11.1 °C 1024.3 in /  34682.8 hPa WSW 13.0 mph /  20.9 km/h 13.0 mph /  20.9 km/h 80 % 0.0 in /  0 mm
15:39 15.6 °F /  -9.1 °C 12.1 °F /  -11.1 °C 1024.3 in /  34682.8 hPa WSW 9.3 mph /  15 km/h 9.3 mph /  15 km/h 80 % 0.0 in /  0 mm
15:44 15.6 °F /  -9.1 °C 12.1 °F /  -11.1 °C 1024.3 in /  34682.8 hPa WSW 7.4 mph /  11.9 km/h 7.4 mph /  11.9 km/h 80 % 0.0 in /  0 mm
15:49 15.6 °F /  -9.1 °C 12.1 °F /  -11.1 °C 1024.3 in /  34682.8 hPa WSW 7.4 mph /  11.9 km/h 7.4 mph /  11.9 km/h 80 % 0.0 in /  0 mm
15:54 15.6 °F /  -9.1 °C 12.2 °F /  -11 °C 1024.3 in /  34682.8 hPa WSW 9.3 mph /  15 km/h 9.3 mph /  15 km/h 80 % 0.0 in /  0 mm
15:59 15.7 °F /  -9.1 °C 12.1 °F /  -11.1 °C 1024.3 in /  34682.8 hPa WSW 9.7 mph /  15.6 km/h 9.7 mph /  15.6 km/h 79 % 0.0 in /  0 mm
16:04 15.7 °F /  -9.1 °C 12.1 °F /  -11.1 °C 1024.3 in /  34682.8 hPa WSW 6.4 mph /  10.3 km/h 6.4 mph /  10.3 km/h 79 % 0.0 in /  0 mm
16:09 15.7 °F /  -9.1 °C 12.1 °F /  -11.1 °C 1024.6 in /  34693 hPa WSW 9.3 mph /  15 km/h 9.3 mph /  15 km/h 79 % 0.0 in /  0 mm
16:14 15.8 °F /  -9 °C 12.2 °F /  -11 °C 1024.6 in /  34693 hPa WSW 8.0 mph /  12.9 km/h 8.0 mph /  12.9 km/h 79 % 0.0 in /  0 mm
16:19 15.8 °F /  -9 °C 12.2 °F /  -11 °C 1024.6 in /  34693 hPa WSW 7.4 mph /  11.9 km/h 7.4 mph /  11.9 km/h 79 % 0.0 in /  0 mm
16:24 15.8 °F /  -9 °C 12.2 °F /  -11 °C 1024.6 in /  34693 hPa WSW 7.4 mph /  11.9 km/h 7.4 mph /  11.9 km/h 79 % 0.0 in /  0 mm
16:29 15.8 °F /  -9 °C 12.2 °F /  -11 °C 1024.6 in /  34693 hPa WSW 8.0 mph /  12.9 km/h 8.0 mph /  12.9 km/h 79 % 0.0 in /  0 mm
16:34 15.8 °F /  -9 °C 12.2 °F /  -11 °C 1024.6 in /  34693 hPa WSW 5.6 mph /  9 km/h 5.6 mph /  9 km/h 79 % 0.0 in /  0 mm
16:39 15.9 °F /  -8.9 °C 12.1 °F /  -11.1 °C 1024.6 in /  34693 hPa WSW 5.6 mph /  9 km/h 5.6 mph /  9 km/h 78 % 0.0 in /  0 mm
16:44 15.9 °F /  -8.9 °C 12.2 °F /  -11 °C 1024.6 in /  34693 hPa WSW 6.4 mph /  10.3 km/h 6.4 mph /  10.3 km/h 79 % 0.0 in /  0 mm
16:49 15.9 °F /  -8.9 °C 12.3 °F /  -10.9 °C 1024.6 in /  34693 hPa WSW 5.6 mph /  9 km/h 5.6 mph /  9 km/h 79 % 0.0 in /  0 mm
16:54 15.9 °F /  -8.9 °C 12.3 °F /  -10.9 °C 1024.6 in /  34693 hPa North 6.4 mph /  10.3 km/h 6.4 mph /  10.3 km/h 79 % 0.0 in /  0 mm
16:59 15.9 °F /  -8.9 °C 12.3 °F /  -10.9 °C 1024.6 in /  34693 hPa WSW 5.6 mph /  9 km/h 5.6 mph /  9 km/h 79 % 0.0 in /  0 mm
17:04 15.9 °F /  -8.9 °C 12.5 °F /  -10.8 °C 1024.6 in /  34693 hPa WSW 7.4 mph /  11.9 km/h 7.4 mph /  11.9 km/h 80 % 0.0 in /  0 mm
17:09 15.9 °F /  -8.9 °C 12.5 °F /  -10.8 °C 1024.6 in /  34693 hPa WSW 5.6 mph /  9 km/h 5.6 mph /  9 km/h 80 % 0.0 in /  0 mm
17:14 15.9 °F /  -8.9 °C 12.4 °F /  -10.9 °C 1024.6 in /  34693 hPa WSW 6.4 mph /  10.3 km/h 6.4 mph /  10.3 km/h 80 % 0.0 in /  0 mm
17:19 15.8 °F /  -9 °C 12.4 °F /  -10.9 °C 1024.6 in /  34693 hPa WSW 7.4 mph /  11.9 km/h 7.4 mph /  11.9 km/h 80 % 0.0 in /  0 mm
17:24 15.8 °F /  -9 °C 12.3 °F /  -10.9 °C 1024.6 in /  34693 hPa WSW 4.8 mph /  7.7 km/h 4.8 mph /  7.7 km/h 80 % 0.0 in /  0 mm
17:29 15.7 °F /  -9.1 °C 12.3 °F /  -10.9 °C 1024.6 in /  34693 hPa WSW 5.6 mph /  9 km/h 5.6 mph /  9 km/h 80 % 0.0 in /  0 mm
17:34 15.7 °F /  -9.1 °C 12.4 °F /  -10.9 °C 1024.6 in /  34693 hPa WSW 1.6 mph /  2.6 km/h 1.6 mph /  2.6 km/h 81 % 0.0 in /  0 mm
17:39 15.7 °F /  -9.1 °C 12.4 °F /  -10.9 °C 1024.6 in /  34693 hPa WSW 5.6 mph /  9 km/h 5.6 mph /  9 km/h 81 % 0.0 in /  0 mm
17:44 15.6 °F /  -9.1 °C 12.3 °F /  -10.9 °C 1024.6 in /  34693 hPa WSW 5.6 mph /  9 km/h 5.6 mph /  9 km/h 81 % 0.0 in /  0 mm
17:49 15.6 °F /  -9.1 °C 12.3 °F /  -10.9 °C 1024.6 in /  34693 hPa WSW 5.6 mph /  9 km/h 5.6 mph /  9 km/h 81 % 0.0 in /  0 mm
17:54 15.6 °F /  -9.1 °C 12.3 °F /  -10.9 °C 1024.9 in /  34703.1 hPa WSW 3.7 mph /  6 km/h 3.7 mph /  6 km/h 81 % 0.0 in /  0 mm
18:00 15.5 °F /  -9.2 °C 12.4 °F /  -10.9 °C 1024.9 in /  34703.1 hPa WSW 5.6 mph /  9 km/h 5.6 mph /  9 km/h 82 % 0.0 in /  0 mm
18:05 15.4 °F /  -9.2 °C 12.4 °F /  -10.9 °C 1024.9 in /  34703.1 hPa WSW 5.6 mph /  9 km/h 5.6 mph /  9 km/h 82 % 0.0 in /  0 mm
18:10 15.4 °F /  -9.2 °C 12.4 °F /  -10.9 °C 1024.9 in /  34703.1 hPa WSW 5.6 mph /  9 km/h 5.6 mph /  9 km/h 82 % 0.0 in /  0 mm
18:15 15.4 °F /  -9.2 °C 12.3 °F /  -10.9 °C 1024.9 in /  34703.1 hPa WSW 3.7 mph /  6 km/h 3.7 mph /  6 km/h 82 % 0.0 in /  0 mm
18:20 15.3 °F /  -9.3 °C 12.3 °F /  -10.9 °C 1024.9 in /  34703.1 hPa Calm     82 % 0.0 in /  0 mm
18:25 15.3 °F /  -9.3 °C 12.4 °F /  -10.9 °C 1024.9 in /  34703.1 hPa Calm     83 % 0.0 in /  0 mm
18:30 15.3 °F /  -9.3 °C 12.4 °F /  -10.9 °C 1024.9 in /  34703.1 hPa Calm     83 % 0.0 in /  0 mm
18:35 15.2 °F /  -9.3 °C 12.2 °F /  -11 °C 1024.9 in /  34703.1 hPa Calm     82 % 0.0 in /  0 mm
18:40 15.1 °F /  -9.4 °C 12.0 °F /  -11.1 °C 1024.9 in /  34703.1 hPa WSW 4.8 mph /  7.7 km/h 4.8 mph /  7.7 km/h 82 % 0.0 in /  0 mm
18:45 14.8 °F /  -9.6 °C 11.9 °F /  -11.2 °C 1024.9 in /  34703.1 hPa NW 5.6 mph /  9 km/h 5.6 mph /  9 km/h 83 % 0.0 in /  0 mm
18:50 14.6 °F /  -9.7 °C 11.7 °F /  -11.3 °C 1024.9 in /  34703.1 hPa NW 3.2 mph /  5.1 km/h 6.4 mph /  10.3 km/h 83 % 0.0 in /  0 mm
18:55 14.4 °F /  -9.8 °C 11.8 °F /  -11.2 °C 1024.9 in /  34703.1 hPa Calm   4.8 mph /  7.7 km/h 84 % 0.0 in /  0 mm
19:00 14.3 °F /  -9.8 °C 11.7 °F /  -11.3 °C 1024.9 in /  34703.1 hPa Calm     84 % 0.0 in /  0 mm
19:05 14.3 °F /  -9.8 °C 11.8 °F /  -11.2 °C 1024.9 in /  34703.1 hPa Calm     85 % 0.0 in /  0 mm
19:10 14.3 °F /  -9.8 °C 11.8 °F /  -11.2 °C 1024.9 in /  34703.1 hPa NNW 6.4 mph /  10.3 km/h 7.2 mph /  11.6 km/h 85 % 0.0 in /  0 mm
19:15 14.2 °F /  -9.9 °C 11.7 °F /  -11.3 °C 1024.9 in /  34703.1 hPa NNW 3.2 mph /  5.1 km/h 8.0 mph /  12.9 km/h 85 % 0.0 in /  0 mm
19:20 14.1 °F /  -9.9 °C 11.6 °F /  -11.3 °C 1025.3 in /  34716.7 hPa North 7.4 mph /  11.9 km/h 7.4 mph /  11.9 km/h 85 % 0.0 in /  0 mm
19:30 14.0 °F /  -10 °C 11.7 °F /  -11.3 °C 1025.3 in /  34716.7 hPa NNW 5.6 mph /  9 km/h   86 % 0.0 in /  0 mm
19:35 14.0 °F /  -10 °C 11.7 °F /  -11.3 °C 1025.3 in /  34716.7 hPa Calm     86 % 0.0 in /  0 mm
19:40 14.0 °F /  -10 °C 11.7 °F /  -11.3 °C 1025.3 in /  34716.7 hPa Calm     86 % 0.0 in /  0 mm
19:45 13.9 °F /  -10.1 °C 11.4 °F /  -11.4 °C 1025.3 in /  34716.7 hPa North 5.6 mph /  9 km/h 5.6 mph /  9 km/h 85 % 0.0 in /  0 mm
19:50 13.8 °F /  -10.1 °C 11.3 °F /  -11.5 °C 1025.3 in /  34716.7 hPa North 5.6 mph /  9 km/h 5.6 mph /  9 km/h 85 % 0.0 in /  0 mm
19:55 13.8 °F /  -10.1 °C 11.3 °F /  -11.5 °C 1025.3 in /  34716.7 hPa North 7.4 mph /  11.9 km/h 7.4 mph /  11.9 km/h 85 % 0.0 in /  0 mm
20:00 13.7 °F /  -10.2 °C 11.2 °F /  -11.6 °C 1025.3 in /  34716.7 hPa North 4.8 mph /  7.7 km/h 8.0 mph /  12.9 km/h 85 % 0.0 in /  0 mm
20:05 13.7 °F /  -10.2 °C 11.2 °F /  -11.6 °C 1025.6 in /  34726.8 hPa Calm     85 % 0.0 in /  0 mm
20:10 13.6 °F /  -10.2 °C 11.1 °F /  -11.6 °C 1025.6 in /  34726.8 hPa Calm     85 % 0.0 in /  0 mm
20:15 13.6 °F /  -10.2 °C 11.1 °F /  -11.6 °C 1025.6 in /  34726.8 hPa NNW 7.4 mph /  11.9 km/h 7.4 mph /  11.9 km/h 85 % 0.0 in /  0 mm
20:20 13.6 °F /  -10.2 °C 10.9 °F /  -11.7 °C 1025.6 in /  34726.8 hPa Calm   6.4 mph /  10.3 km/h 84 % 0.0 in /  0 mm
20:25 13.6 °F /  -10.2 °C 10.9 °F /  -11.7 °C 1025.6 in /  34726.8 hPa NNW 8.0 mph /  12.9 km/h 8.0 mph /  12.9 km/h 84 % 0.0 in /  0 mm
20:30 13.4 °F /  -10.3 °C 10.6 °F /  -11.9 °C 1025.6 in /  34726.8 hPa NNW 8.0 mph /  12.9 km/h 11.3 mph /  18.2 km/h 83 % 0.0 in /  0 mm
20:35 13.4 °F /  -10.3 °C 10.6 °F /  -11.9 °C 1025.6 in /  34726.8 hPa NNW 4.8 mph /  7.7 km/h 11.3 mph /  18.2 km/h 83 % 0.0 in /  0 mm
20:40 13.4 °F /  -10.3 °C 10.4 °F /  -12 °C 1025.6 in /  34726.8 hPa North 11.1 mph /  17.9 km/h 11.1 mph /  17.9 km/h 82 % 0.0 in /  0 mm
20:45 13.4 °F /  -10.3 °C 10.2 °F /  -12.1 °C 1025.6 in /  34726.8 hPa North 8.0 mph /  12.9 km/h 12.9 mph /  20.8 km/h 81 % 0.0 in /  0 mm
20:50 13.4 °F /  -10.3 °C 10.2 °F /  -12.1 °C 1026.0 in /  34740.4 hPa NNW 11.1 mph /  17.9 km/h 11.1 mph /  17.9 km/h 81 % 0.0 in /  0 mm
20:55 13.4 °F /  -10.3 °C 10.0 °F /  -12.2 °C 1026.0 in /  34740.4 hPa NNW 8.0 mph /  12.9 km/h 9.7 mph /  15.6 km/h 80 % 0.0 in /  0 mm
21:00 13.4 °F /  -10.3 °C 10.1 °F /  -12.2 °C 1026.0 in /  34740.4 hPa NNW 7.4 mph /  11.9 km/h 7.4 mph /  11.9 km/h 80 % 0.0 in /  0 mm
21:05 13.4 °F /  -10.3 °C 9.9 °F /  -12.3 °C 1026.0 in /  34740.4 hPa North 11.1 mph /  17.9 km/h 11.1 mph /  17.9 km/h 79 % 0.0 in /  0 mm
21:10 13.5 °F /  -10.3 °C 9.7 °F /  -12.4 °C 1026.0 in /  34740.4 hPa North 11.1 mph /  17.9 km/h 11.1 mph /  17.9 km/h 78 % 0.0 in /  0 mm
21:15 13.4 °F /  -10.3 °C 9.7 °F /  -12.4 °C 1026.0 in /  34740.4 hPa North 8.0 mph /  12.9 km/h 9.7 mph /  15.6 km/h 78 % 0.0 in /  0 mm
21:16 13.4 °F /  -10.3 °C 9.5 °F /  -12.5 °C 1026.0 in /  34740.4 hPa North 9.3 mph /  15 km/h 9.3 mph /  15 km/h 77 % 0.0 in /  0 mm
21:21 13.4 °F /  -10.3 °C 9.4 °F /  -12.6 °C 1026.0 in /  34740.4 hPa North 11.1 mph /  17.9 km/h 11.1 mph /  17.9 km/h 77 % 0.0 in /  0 mm
21:26 13.3 °F /  -10.4 °C 9.4 °F /  -12.6 °C 1026.0 in /  34740.4 hPa NNW 9.3 mph /  15 km/h 9.3 mph /  15 km/h 77 % 0.0 in /  0 mm
21:31 13.3 °F /  -10.4 °C 9.3 °F /  -12.6 °C 1026.0 in /  34740.4 hPa North 7.4 mph /  11.9 km/h 7.4 mph /  11.9 km/h 77 % 0.0 in /  0 mm
21:36 13.2 °F /  -10.4 °C 9.3 °F /  -12.6 °C 1026.0 in /  34740.4 hPa North 9.7 mph /  15.6 km/h 9.7 mph /  15.6 km/h 77 % 0.0 in /  0 mm
21:41 13.2 °F /  -10.4 °C 9.2 °F /  -12.7 °C 1026.0 in /  34740.4 hPa North 9.3 mph /  15 km/h 9.3 mph /  15 km/h 77 % 0.0 in /  0 mm
21:46 13.1 °F /  -10.5 °C 9.2 °F /  -12.7 °C 1026.0 in /  34740.4 hPa North 9.3 mph /  15 km/h 9.3 mph /  15 km/h 77 % 0.0 in /  0 mm
21:51 13.0 °F /  -10.6 °C 9.1 °F /  -12.7 °C 1026.0 in /  34740.4 hPa North 11.3 mph /  18.2 km/h 11.3 mph /  18.2 km/h 77 % 0.0 in /  0 mm
21:56 13.0 °F /  -10.6 °C 9.1 °F /  -12.7 °C 1026.0 in /  34740.4 hPa North 11.1 mph /  17.9 km/h 11.1 mph /  17.9 km/h 77 % 0.0 in /  0 mm
22:01 12.9 °F /  -10.6 °C 8.8 °F /  -12.9 °C 1026.0 in /  34740.4 hPa North 11.3 mph /  18.2 km/h 11.3 mph /  18.2 km/h 76 % 0.0 in /  0 mm
22:06 12.8 °F /  -10.7 °C 8.9 °F /  -12.8 °C 1026.0 in /  34740.4 hPa North 13.0 mph /  20.9 km/h 13.0 mph /  20.9 km/h 77 % 0.0 in /  0 mm
22:11 12.7 °F /  -10.7 °C 8.8 °F /  -12.9 °C 1026.0 in /  34740.4 hPa NNE 13.0 mph /  20.9 km/h 13.0 mph /  20.9 km/h 77 % 0.0 in /  0 mm
22:16 12.7 °F /  -10.7 °C 8.6 °F /  -13 °C 1026.0 in /  34740.4 hPa North 11.3 mph /  18.2 km/h 11.3 mph /  18.2 km/h 76 % 0.0 in /  0 mm
22:21 12.7 °F /  -10.7 °C 8.6 °F /  -13 °C 1026.0 in /  34740.4 hPa North 11.1 mph /  17.9 km/h 11.1 mph /  17.9 km/h 76 % 0.0 in /  0 mm
22:26 12.8 °F /  -10.7 °C 8.7 °F /  -12.9 °C 1026.0 in /  34740.4 hPa NNW 13.0 mph /  20.9 km/h 13.0 mph /  20.9 km/h 76 % 0.0 in /  0 mm
22:31 12.8 °F /  -10.7 °C 8.7 °F /  -12.9 °C 1026.0 in /  34740.4 hPa North 14.8 mph /  23.8 km/h 14.8 mph /  23.8 km/h 76 % 0.0 in /  0 mm
22:36 12.9 °F /  -10.6 °C 8.6 °F /  -13 °C 1026.0 in /  34740.4 hPa NNW 13.0 mph /  20.9 km/h 13.0 mph /  20.9 km/h 75 % 0.0 in /  0 mm
22:41 12.9 °F /  -10.6 °C 8.4 °F /  -13.1 °C 1026.0 in /  34740.4 hPa North 14.5 mph /  23.3 km/h 14.5 mph /  23.3 km/h 74 % 0.0 in /  0 mm
22:46 12.9 °F /  -10.6 °C 8.4 °F /  -13.1 °C 1026.0 in /  34740.4 hPa North 13.0 mph /  20.9 km/h 13.0 mph /  20.9 km/h 74 % 0.0 in /  0 mm
22:51 12.9 °F /  -10.6 °C 8.4 °F /  -13.1 °C 1026.3 in /  34750.5 hPa North 11.1 mph /  17.9 km/h 11.1 mph /  17.9 km/h 74 % 0.0 in /  0 mm
22:56 12.9 °F /  -10.6 °C 8.2 °F /  -13.2 °C 1026.3 in /  34750.5 hPa North 14.8 mph /  23.8 km/h 14.8 mph /  23.8 km/h 73 % 0.0 in /  0 mm
23:01 13.0 °F /  -10.6 °C 8.3 °F /  -13.2 °C 1026.3 in /  34750.5 hPa North 14.8 mph /  23.8 km/h 14.8 mph /  23.8 km/h 73 % 0.0 in /  0 mm
23:06 13.1 °F /  -10.5 °C 8.1 °F /  -13.3 °C 1026.3 in /  34750.5 hPa NNW 14.8 mph /  23.8 km/h 14.8 mph /  23.8 km/h 72 % 0.0 in /  0 mm
23:11 13.1 °F /  -10.5 °C 8.1 °F /  -13.3 °C 1026.3 in /  34750.5 hPa North 13.0 mph /  20.9 km/h 13.0 mph /  20.9 km/h 72 % 0.0 in /  0 mm
23:16 13.1 °F /  -10.5 °C 7.9 °F /  -13.4 °C 1026.3 in /  34750.5 hPa North 14.8 mph /  23.8 km/h 14.8 mph /  23.8 km/h 71 % 0.0 in /  0 mm
23:21 13.1 °F /  -10.5 °C 7.9 °F /  -13.4 °C 1026.3 in /  34750.5 hPa North 11.1 mph /  17.9 km/h 11.1 mph /  17.9 km/h 71 % 0.0 in /  0 mm
23:26 13.0 °F /  -10.6 °C 7.9 °F /  -13.4 °C 1026.3 in /  34750.5 hPa North 13.0 mph /  20.9 km/h 13.0 mph /  20.9 km/h 71 % 0.0 in /  0 mm
23:31 12.9 °F /  -10.6 °C 7.8 °F /  -13.4 °C 1026.3 in /  34750.5 hPa North 14.8 mph /  23.8 km/h 14.8 mph /  23.8 km/h 71 % 0.0 in /  0 mm
23:36 12.9 °F /  -10.6 °C 7.8 °F /  -13.4 °C 1026.3 in /  34750.5 hPa North 11.1 mph /  17.9 km/h 11.1 mph /  17.9 km/h 71 % 0.0 in /  0 mm
23:41 12.8 °F /  -10.7 °C 7.7 °F /  -13.5 °C 1026.3 in /  34750.5 hPa North 14.8 mph /  23.8 km/h 14.8 mph /  23.8 km/h 71 % 0.0 in /  0 mm
23:47 12.9 °F /  -10.6 °C 7.8 °F /  -13.4 °C 1026.3 in /  34750.5 hPa North 14.8 mph /  23.8 km/h 14.8 mph /  23.8 km/h 71 % 0.0 in /  0 mm
23:52 12.8 °F /  -10.7 °C 7.7 °F /  -13.5 °C 1026.3 in /  34750.5 hPa North 13.0 mph /  20.9 km/h 13.0 mph /  20.9 km/h 71 % 0.0 in /  0 mm
23:57 12.9 °F /  -10.6 °C 7.8 °F /  -13.4 °C 1026.3 in /  34750.5 hPa North 13.0 mph /  20.9 km/h 13.0 mph /  20.9 km/h 71 % 0.0 in /  0 mm
Puerto Banus, Marbella
Elogios de Weather Underground - 1.75 mb

Guión original por  Jim McMurry - jmcmurry@mwt.net Adaptado para la plantilla por  Wim van der Kuil - Leuven-Template.eu

Usted encontrará nuestra información del tiempo también en:

Weather Underground

Iberian Peninsula Weather Network